Other Public Products
Issued by NWS Charleston, SC

Current Version | Previous Version | Graphics & Text | Print | Product List | Glossary On
Versions: 1 2 3 4 5 6 7 8 9 10 11 12 13 14 15 16 17 18 19 20 21 22 23 24 25 26 27 28 29 30 31 32 33 34 35 36 37 38 39 40 41 42 43 44 45 46 47 48 49 50
000 FPUS82 KCHS 251129 OPUCHS TEST...KCHS/KSAV Gateway Observations...TEST National Weather Service Charleston SC 700 AM EDT MON SEP 25 2017 NOTE: "fair" indicates few or no clouds below 12,000 feet with no significant weather and/or obstructions to visibility. SCZ050-WAZ558-NCZ071-TXZ119-213-PAZ071-DCZ001-FLZ074-172-MI076- NYZ176-178-MAZ016-IL014-TNZ027-NJZ106-GAZ044-MD014-251200- ...Gateway Observations for Charleston International... CITY SKY/WX TMP DP RH WIND PRES REMARKS Chas Airport CLOUDY 70 65 84 N7 29.93R Seattle CLOUDY 58 51 78 CALM 30.09F Charlotte MOCLDY 65 63 93 N7 30.03R Dallas DFW PTCLDY 73 68 84 SE5 29.88R Dallas Love PTCLDY 75 66 73 E6 29.89R Philladelphia PTCLDY 69 66 90 CALM 30.05R Wash National PTCLDY 72 68 87 CALM 30.05R Baltimore PTCLDY 65 65 100 CALM 30.04R Miami PTCLDY 82 76 81 CALM 29.87R Detroit PTCLDY 69 65 86 CALM 30.07R Newark PTCLDY 73 66 78 NE6 30.04R Laguardia PTCLDY 73 66 78 NE6 30.04R J F K PTCLDY 70 64 81 CALM 30.06R Boston Logan PTCLDY 65 64 97 CALM 30.07R Ft. Lauderdale MOCLDY 80 75 84 CALM 29.87R Chicago O`Hare CLEAR 68 57 68 CALM 30.00R Chicago Midway PTCLDY 73 57 57 S6 30.01R Houston Bush PTCLDY 73 72 96 N3 29.86S Houston Hobby PTCLDY 78 72 81 SE3 29.85R Nashville PTCLDY 66 64 93 CALM 30.04R Atlanta PTCLDY 71 64 78 NE7 30.02S $$ GAZ044-118-TXZ119-213-NCZ071-DCZ001-MDZ014-506-PAZ021-071-NJZ106- NYZ176-178-MAZ106-OHZ011-021-055-MIZ076-KYZ091-ILZ014-INZ047- MNZ060-ONZ431-251200- ...Gateway Observations for Savannah International... CITY SKY/WX TMP DP RH WIND PRES REMARKS Savannah Arpt MOCLDY 70 68 93 N7 29.93S Atlanta PTCLDY 71 64 78 NE7 30.02S Charlotte MOCLDY 65 63 93 N7 30.03R Dallas DFW PTCLDY 73 68 84 SE5 29.88R Houston Bush PTCLDY 73 72 96 N3 29.86S Wash National PTCLDY 72 68 87 CALM 30.05R Wash Dulles PTCLDY 65 65 100 NW3 30.05R Baltimore PTCLDY 65 65 100 CALM 30.04R Philadelphia PTCLDY 69 66 90 CALM 30.05R Newark PTCLDY 73 66 78 NE6 30.04R Laguardia PTCLDY 73 66 78 NE6 30.04R J F K PTCLDY 70 64 81 CALM 30.06R Boston PTCLDY 65 64 97 CALM 30.07R Pittsburg MOCLDY 65 62 90 CALM 30.10R Akron PTCLDY 69 62 78 E3 30.09R Cleveland MOCLDY 72 65 78 CALM 30.08R Cincinnati PTCLDY 65 60 84 CALM 30.05R Columbus CLEAR 63 62 96 CALM 30.06R Detroit PTCLDY 69 65 86 CALM 30.07R Chicago O`Hare CLEAR 68 57 68 CALM 30.00R Minneapolis LGT RAIN 61 61 100 VRB6 29.98R Indianapolis PTCLDY 66 58 75 CALM 30.04R Toronto Canada PTCLDY 72 64 78 CALM 30.08S $$

USA.gov is the U.S. government's official web portal to all federal, state and local government web resources and services.